Location: Hilton Head Island
(32.2163°N, 80.7526°W)
Time: 12:46:27
(UTC-05:00)

A-11 Canister half - Visible Passes

Search period start: 16 February 2026 00:00
Search period end: 26 February 2026 00:00
Orbit: 1525 x 1682 km, 47.3° (Epoch: 16 February)

Date Brightness Start Highest point End Pass type
(mag) Time Alt. Az. Time Alt. Az. Time Alt. Az.
16 Feb 9.9 18:44:14 10° W 18:52:38 36° NNW 19:01:03 10° NE visible
16 Feb 9.8 20:51:45 10° NW 21:00:00 34° N 21:00:09 34° NNE visible
16 Feb 11.0 22:57:06 10° NW 22:58:26 15° NW 22:58:26 15° NW visible
17 Feb 9.9 18:22:14 10° W 18:30:42 37° NNW 18:39:10 10° NE visible
17 Feb 9.8 20:29:52 10° NW 20:38:04 33° N 20:39:34 32° NNE visible
17 Feb 10.7 22:35:17 10° NW 22:37:51 21° NW 22:37:51 21° NW visible
18 Feb 9.8 20:07:58 10° NW 20:16:07 33° N 20:18:58 28° NE visible
18 Feb 10.4 22:13:27 10° NW 22:17:15 28° NW 22:17:15 28° NW visible
19 Feb 9.9 19:46:03 10° NW 19:54:10 32° N 19:58:24 23° NE visible
19 Feb 10.0 21:51:37 10° NW 21:56:41 35° NNW 21:56:41 35° NNW visible
20 Feb 9.9 19:24:07 10° NW 19:32:13 32° N 19:37:50 18° NE visible
20 Feb 9.6 21:29:48 10° NW 21:36:07 44° NNW 21:36:07 44° NNW visible
21 Feb 9.9 19:02:12 10° NW 19:10:16 32° N 19:17:18 13° ENE visible
21 Feb 9.3 21:07:58 10° NW 21:15:35 51° N 21:15:35 51° N visible
21 Feb 11.1 23:13:07 10° WNW 23:13:53 13° WNW 23:13:53 13° WNW visible
22 Feb 10.0 18:40:14 10° WNW 18:48:19 31° N 18:56:24 10° ENE visible
22 Feb 9.1 20:46:08 10° NW 20:55:05 53° NNE 20:55:05 53° NNE visible
22 Feb 10.8 22:51:15 10° WNW 22:53:22 19° WNW 22:53:22 19° WNW visible
23 Feb 9.1 20:24:18 10° NW 20:33:18 51° NNE 20:34:37 48° NE visible
23 Feb 10.4 22:29:22 10° WNW 22:32:54 26° WNW 22:32:54 26° WNW visible
24 Feb 9.3 20:02:27 10° NW 20:11:25 49° NNE 20:14:11 39° ENE visible
24 Feb 10.0 22:07:31 10° WNW 22:12:28 35° WNW 22:12:28 35° WNW visible
25 Feb 9.3 19:40:37 10° NW 19:49:32 47° NNE 19:53:48 30° E visible
25 Feb 9.6 21:45:39 10° WNW 21:52:05 48° WNW 21:52:05 48° WNW visible
